This is the latest recevied weather packets stored in our database for station/object DL9GRB-13. If no packets are shown the sender has not sent any weather packets the latest 10 day(s).
| Time | Temp. | Humidity | Pressure | Rain* | Wind** | Luminosity | Snow |
|---|---|---|---|---|---|---|---|
| 1778234829 | 15.56° C | 40% | 1020.4 hPa | 0 mm | - | 749 W/m² | - |
| 1778234649 | 15.56° C | 39% | 1020.6 hPa | 0 mm | - | 742 W/m² | - |
| 1778234469 | 15.56° C | 41% | 1020.6 hPa | 0 mm | - | 737 W/m² | - |
| 1778234289 | 15° C | 40% | 1020.6 hPa | 0 mm | - | 730 W/m² | - |
| 1778234109 | 15° C | 38% | 1020.7 hPa | 0 mm | - | 724 W/m² | - |
| 1778233929 | 15° C | 38% | 1020.7 hPa | 0 mm | - | 720 W/m² | - |
| 1778233749 | 15.56° C | 39% | 1020.7 hPa | 0 mm | - | 714 W/m² | - |
| 1778233569 | 15.56° C | 38% | 1020.7 hPa | 0 mm | - | 709 W/m² | - |
| 1778233389 | 15.56° C | 39% | 1020.7 hPa | 0 mm | - | 709 W/m² | - |
| 1778233209 | 15° C | 40% | 1020.7 hPa | 0 mm | - | 709 W/m² | - |
| 1778233029 | 15.56° C | 38% | 1020.7 hPa | 0 mm | - | 705 W/m² | - |
| 1778232849 | 15.56° C | 38% | 1020.7 hPa | 0 mm | - | 699 W/m² | - |
| 1778232669 | 15.56° C | 38% | 1020.6 hPa | 0 mm | - | 696 W/m² | - |
| 1778232489 | 15.56° C | 38% | 1020.6 hPa | 0 mm | - | 688 W/m² | - |
| 1778232309 | 15° C | 38% | 1020.8 hPa | 0 mm | - | 685 W/m² | - |
| 1778232129 | 15° C | 37% | 1020.6 hPa | 0 mm | - | 678 W/m² | - |
| 1778231949 | 15° C | 39% | 1020.8 hPa | 0 mm | - | 672 W/m² | - |
| 1778231769 | 15° C | 39% | 1020.8 hPa | 0 mm | - | 666 W/m² | - |
| 1778231589 | 15° C | 41% | 1020.7 hPa | 0 mm | - | 658 W/m² | - |
| 1778231409 | 14.44° C | 38% | 1020.7 hPa | 0 mm | - | 651 W/m² | - |
| 1778231229 | 14.44° C | 38% | 1021 hPa | 0 mm | - | 645 W/m² | - |
| 1778231049 | 14.44° C | 39% | 1020.8 hPa | 0 mm | - | 638 W/m² | - |
| 1778230869 | 15° C | 38% | 1020.8 hPa | 0 mm | - | 630 W/m² | - |
| 1778230689 | 15° C | 40% | 1020.7 hPa | 0 mm | - | 624 W/m² | - |
| 1778230509 | 14.44° C | 41% | 1020.9 hPa | 0 mm | - | 616 W/m² | - |
* Rain latest hour (hover to see other rain measurements)
** Current wind speed in m/s (hover to see current wind gust speed)